NOAA 16 DEB, 41243

Orbit data source: Space-Track

NOAA 16 DEB, 41243 is space debris in LEO originally from a launch on Thu, 21 Sep 2000 UTC launched from the Air Force Western Test Range (AFWTR). Debris objects in space refer to the collection of defunct objects orbiting the Earth. Examples of debris include non-operational satellites, rocket bodies, and fragments generated from explosions, collisions, or faulty payload assembly.

Loading next visibility...
NOAA 16 DEB details
Identifier
41243, 2000-055ET
Orbit
LEO
Last TLE update11 hours ago
Origin
Flag of USNOAA (US)
ManufacturerUnknown
MissionSpacecraft
Bus & MotorUnknown
MassUnknown
Launch date (UTC)
2000-09-21 (24 years ago)
Launch vehicleUnknown
Launch site
Air Force Western Test Range (AFWTR)
Object type
Payload
Rocket body
Debris
Shape & HBRUnknown
Radar Cross SectionSmall (<0.1 m²)

Expand to show TLE details & history

TLE from 11 hours ago
0 NOAA 16 DEB
1 41243U 00055ET  24339.98523062  .00008655  00000-0  38538-2 0  9993
2 41243  98.7523  54.0755 0004773 220.7359 139.3462 14.23059179460442
Epoch: 2024-12-04T23:38Z
Definitive object data (Epoch: 2024-12-04T23:38:43.925Z)
Latitude-0.00009°
Longitude-14.88004°
Altitude820.549 km
Speed7.442 km/s
True Right ascension03h 36m 18s
True Declination0° 00' 00"
Sunlit
Object was in full shadow at TLE epoch
Visualization TLE readout
Latitude40.64519°
Longitude173.12049°
Altitude820.243 km
Speed7.447 km/s
Apparent Right ascension18h 08m 07s
Apparent Declination3° 52' 22"
Sunlit
Object is in daylight
Visualization observer readout
Local Sidereal Time08:23:38
Azimuth43.636° NE
Elevation-36.297°
Doppler factor1
Orbital elements
Apogee altitude815.614 km
Perigee altitude808.75 km
Semi-major axis7,190.319 km
Eccentricity0.0004773
Inclination98.7523°
RAAN54.0755°
Arg. of periapsis220.7359°
True anomaly139.38182°
Mean anomaly139.3462°
Eccentric anomaly139.36401°
Mean motion3.55976 °/min
BSTAR0.0038538
Orbital period101.13 mins
Loading maneuver chart data...
Loading historical data...
Loading historical data...
Loading historical data...
Loading historical data...
Loading historical data...
Loading historical data...
Loading historical data...

NOAA 16 DEB Visibility forecast

Observer location: undefined°, undefined

Span
Click to sort rows by Start time (UTC) header in descending order
Start Az.
Max El. time (UTC)
Max El. Az.
Max El.
End time (UTC)
End Az.
8 mins2024-12-05 17:07:15.702Z43.957° NE2024-12-05 17:11:15.702Z100.64° ESE23.7°2024-12-05 17:15:15.702Z150.826° SSE
8 mins2024-12-05 18:47:15.702Z351.232° N2024-12-05 18:51:15.702Z284.04° WNW31.309°2024-12-05 18:55:15.702Z227.818° WSW
8 mins2024-12-06 04:28:15.702Z131.002° SE2024-12-06 04:32:15.702Z59.363° ENE32.793°2024-12-06 04:36:15.702Z3.911° NNE
6 mins2024-12-06 06:09:15.702Z224.916° SW2024-12-06 06:12:15.702Z270.233° WNW22.396°2024-12-06 06:15:15.702Z311.198° NW
|